Location: Düngen
(52.0952°N, 10.0219°E)
Time: 18:41:24
(UTC+00:00)

Cosmos 1151 Rocket - Pass Details

Date: 11 March 2026
Orbit: 583 x 606 km, 82.5° (Epoch: 20 April)

Event Time Altitude Azimuth Distance (km) Brightness Sun altitude
Rises 19:51:50 0° 347° (NNW) 2,836 7.0 -23.8°
Reaches altitude 10° 19:54:03 10° 344° (NNW) 1,927 6.1 -24.1°
Maximum altitude 19:58:16 66° 264° (W) 644 3.2 -24.7°
Enters shadow 19:58:31 64° 240° (WSW) 653 3.2 -24.7°
